#timestamp,LO_Frequency,Hit,StdDev 
1635930015.4,286046999.3,N
1635930035.2,286046997.0,N
1635930055.1,286046995.2,Y
1635930056.0,286046995.2,P
1635930075.8,286046996.9,N
1635930095.7,286046997.1,N
1635930115.5,286046996.6,N
1635930135.3,286046996.7,Y
1635930155.2,286047002.2,P
1635930175.0,286047002.1,N
1635930175.9,286047002.1,N
1635930195.8,286047002.5,N
1635930215.6,286047001.6,N
1635930235.4,286047001.5,N
1635930255.3,286047001.3,N
1635930275.1,286047002.9,N
1635930295.9,286047001.5,N
1635930315.7,286047000.0,N
1635930335.5,286047001.1,N
1635930355.4,286046998.5,N
1635930375.2,286047000.6,N
1635930395.0,286047001.1,N
1635930395.9,286047001.1,N
1635930415.8,286047000.1,N
1635930435.6,286047001.5,N
1635930455.5,286047001.3,N
1635930475.3,286047004.0,N
1635930495.1,286047005.7,Y
1635930515.9,286047003.7,P
1635930535.7,286047001.6,N
1635930555.5,286047004.4,P
1635930575.4,286047004.0,N
1635930595.2,286047003.4,N
1635930615.1,286047004.2,Y
1635930616.0,286047004.2,P
1635930635.8,286047000.9,N
1635930655.6,286047000.9,N
1635930675.5,286046998.5,N
1635930695.3,286047001.1,N
1635930715.1,286047000.8,N
1635930735.9,286046998.1,N
1635930755.7,286047001.2,N
1635930775.5,286047000.0,N
1635930795.4,286047000.2,N
1635930815.2,286047002.3,N
1635930835.1,286047000.6,N
1635930836.0,286047000.6,N
1635930855.8,286047000.1,N
1635930875.6,286047000.9,N
1635930895.5,286047000.2,N
1635930915.3,286047000.1,N
1635930935.1,286047000.1,N
1635930955.9,286046999.7,N
1635930975.7,286047001.9,N
1635930995.6,286047001.9,N
1635931015.4,286047002.6,N
1635931035.2,286047001.4,N
1635931055.1,286047001.3,N
1635931056.0,286047001.3,N
1635931075.8,286047003.2,N
1635931095.7,286047003.5,N
1635931115.5,286047003.8,N
1635931135.3,286047003.8,N
1635931155.2,286047003.8,N
1635931175.9,286047003.8,N
1635931195.7,286047004.0,N
1635931215.6,286047003.6,N
1635931235.4,286047003.1,N
1635931255.3,286047002.9,N
1635931275.1,286047003.2,N
1635931276.0,286047003.2,N
1635931295.8,286047002.9,N
1635931315.7,286047005.5,Y
1635931335.5,286047002.4,P
1635931355.3,286047002.1,P
1635931375.2,286047002.6,P
1635931395.0,286047000.2,N
1635931395.9,286047000.2,N
1635931415.8,286047000.0,N
1635931435.6,286047000.1,N
1635931455.5,286047002.3,N
1635931475.3,286046999.9,N
1635931495.1,286046999.7,N
1635931515.9,286047000.6,N
1635931535.7,286047000.2,N
1635931555.5,286047000.7,N
1635931575.4,286047000.3,N
1635931595.2,286047002.0,N
1635931615.0,286047002.8,N
1635931615.9,286047002.8,N
1635931635.8,286047002.4,N
1635931655.6,286047001.5,N
1635931675.5,286046999.9,N
1635931695.3,286047001.6,N
1635931715.1,286047001.6,N
1635931765.9,286047002.4,E
1635931775.8,286047000.9,N
1635931795.6,286046999.0,P
1635931815.5,286046998.5,N
1635931865.3,286046998.4,E
1635931875.3,286047000.8,N
1635931895.1,286047002.8,P
1635931896.0,286047002.8,N
1635931915.8,286047002.6,N
1635931935.7,286047002.8,Y
1635931955.5,286046998.7,P
1635931975.4,286046998.3,N
1635931995.2,286046998.6,N
1635932015.0,286047001.0,N
1635932015.9,286047001.0,N
1635932035.8,286046998.5,N
1635932055.6,286047000.7,N
1635932075.4,286046998.6,N
1635932095.3,286046999.5,N
1635932115.1,286046998.9,N
1635932135.9,286046997.2,N
1635932155.7,286046996.5,N
1635932175.5,286046999.4,N
1635932195.4,286046996.6,N
1635932215.2,286046997.8,N
1635932235.0,286046998.6,N
1635932235.9,286046998.6,N
1635932255.8,286046998.8,N
1635932275.6,286046998.5,N
1635932295.5,286046998.1,N
1635932315.3,286047000.5,N
1635932335.1,286047000.6,N
1635932355.9,286047000.3,N
1635932375.7,286047000.2,N
1635932395.5,286047002.5,N
1635932415.4,286047000.1,N
1635932435.2,286047001.9,N
1635932455.1,286047002.8,N
1635932456.0,286047002.8,N
1635932475.8,286047000.3,N
1635932495.6,286047000.7,N
1635932515.5,286047000.6,N
1635932535.3,286047000.7,N
1635932555.1,286047000.3,N
1635932575.9,286047000.8,N
1635932595.7,286047000.4,N
1635932615.6,286047000.3,N
1635932635.4,286047000.9,N
1635932655.3,286046998.8,N
1635932675.1,286046999.0,N
1635932676.0,286046999.0,N
1635932695.8,286046998.9,N
1635932715.7,286046998.3,N
1635932735.5,286046998.2,N
1635932755.3,286046998.2,N
1635932775.2,286046998.4,N
1635932795.0,286046998.4,N
1635932795.9,286046998.4,N
1635932815.8,286046998.5,N
1635932835.6,286046998.5,N
1635932855.4,286046998.6,N
1635932875.3,286046998.3,N
1635932895.1,286047000.4,N
1635932915.8,286046999.7,N
1635932935.7,286047000.6,N
1635932955.5,286046999.8,N
1635932975.4,286046999.8,N
1635932995.2,286047000.2,N
1635933015.0,286047000.1,N
1635933015.9,286047000.1,N
1635933035.8,286047000.4,N
1635933055.6,286046998.6,N
1635933075.5,286047001.1,N
1635933095.3,286046999.3,N
1635933115.1,286046998.4,N
1635933135.9,286046998.7,N
1635933155.7,286046998.1,N
1635933175.6,286047000.8,N
1635933195.4,286047000.2,N
1635933215.2,286046999.9,N
1635933235.1,286047000.8,N
1635933236.0,286047000.8,N
1635933255.8,286046998.6,N
1635933275.6,286047000.9,N
1635933295.5,286047001.1,N
1635933315.3,286046998.3,N
1635933335.2,286046998.1,N
1635933355.9,286046998.1,N
1635933375.7,286046998.2,N
1635933395.6,286046998.7,N
1635933415.4,286046998.3,N
1635933435.2,286047000.7,N
1635933455.1,286047000.9,N
1635933456.0,286047000.9,N
1635933475.8,286047000.6,N
1635933495.7,286047002.4,N
1635933515.5,286046999.7,N
1635933535.3,286047002.8,N
1635933555.2,286047001.2,N
1635933575.0,286046998.6,N
1635933575.9,286046998.6,N
1635933595.8,286046998.8,N
